This is the latest recevied weather packets stored in our database for station/object W0AKY-13. If no packets are shown the sender has not sent any weather packets the latest 1 day(s).
| Time | Temp. | Humidity | Pressure | Rain* | Wind** | Luminosity | Snow |
|---|---|---|---|---|---|---|---|
| 1778105684 | 15° C | 29% | 1017.9 hPa | 0 mm | - | 403 W/m² | - |
| 1778105382 | 15.56° C | 34% | 1018.1 hPa | 0 mm | - | 98 W/m² | - |
| 1778104470 | 17.22° C | 27% | 1018.2 hPa | 0 mm | - | 417 W/m² | - |
| 1778104166 | 17.22° C | 32% | 1018.2 hPa | 0 mm | - | 414 W/m² | - |
| 1778103561 | 16.67° C | 30% | 1018.2 hPa | 0 mm | - | 424 W/m² | - |
| 1778101436 | 16.11° C | 32% | 1018.8 hPa | 0 mm | - | 286 W/m² | - |
| 1778100521 | 17.22° C | 32% | 1018.7 hPa | 0 mm | - | 571 W/m² | - |
| 1778099916 | 17.22° C | 33% | 1019.1 hPa | 0 mm | - | 347 W/m² | - |
| 1778099613 | 16.11° C | 31% | 1019 hPa | 0 mm | - | 668 W/m² | - |
| 1778099007 | 15.56° C | 31% | 1019 hPa | 0 mm | - | 499 W/m² | - |
| 1778098703 | 15.56° C | 33% | 1019.1 hPa | 0 mm | - | 689 W/m² | - |
| 1778098401 | 16.11° C | 33% | 1019 hPa | 0 mm | - | 501 W/m² | - |
| 1778095368 | 15.56° C | 33% | 1019.6 hPa | 0 mm | - | 198 W/m² | - |
| 1778094761 | 14.44° C | 33% | 1019.6 hPa | 0 mm | - | 171 W/m² | - |
| 1778093852 | 15.56° C | 36% | 1019.5 hPa | 0 mm | - | 739 W/m² | - |
| 1778092943 | 14.44° C | 36% | 1019.6 hPa | 0 mm | - | 360 W/m² | - |
| 1778092640 | 13.89° C | 36% | 1019.7 hPa | 0 mm | - | 765 W/m² | - |
| 1778091125 | 14.44° C | 36% | 1019.7 hPa | 0 mm | - | 613 W/m² | - |
| 1778090214 | 14.44° C | 36% | 1020.4 hPa | 0 mm | - | 567 W/m² | - |
| 1778088391 | 13.33° C | 34% | 1020.2 hPa | 0 mm | - | 444 W/m² | - |
| 1778087174 | 13.33° C | 34% | 1020.4 hPa | 0 mm | - | 675 W/m² | - |
| 1778086871 | 12.78° C | 35% | 1020.6 hPa | 0 mm | - | 612 W/m² | - |
| 1778086265 | 12.78° C | 33% | 1020.9 hPa | 0 mm | - | 654 W/m² | - |
| 1778085355 | 12.78° C | 34% | 1020.6 hPa | 0 mm | - | 653 W/m² | - |
| 1778084748 | 12.22° C | 36% | 1020.7 hPa | 0 mm | - | 567 W/m² | - |
* Rain latest hour (hover to see other rain measurements)
** Current wind speed in m/s (hover to see current wind gust speed)